Content
SEND FEEDBACK

Daily
Averages
Monthly
Summary
Turkmenistan

KURTILE, TURKMENISTAN


Home > Asia > Turkmenistan
Elevation: 748 feet     Latitude: 37 58N     Longitude: 058 19E

WEATHER
 
SELECT A DAY
Number of Records: 177,527;   Date Range: 3/15/97 - 9/16/14
 
SHARE

PRINT THIS DATA

[ ← Previous Day ]
WEATHER ALMANAC - APRIL 30, 2013
[ Next Day → ]
[ °C ]   °F
Weather ElementAverageHighLow
Temperature67.8 °F82.4 °F (3:00 pm)50 °F (6:00 am)
Dewpoint33.8 °F43 °F (8:00 am)23 °F (5:00 pm)
Humidity31 %67 % (7:00 am)8 % (5:00 pm)
Barometer30.15 in30.21 in (10:00 pm)30.09 in (2:00 am)
Wind Speed7.5 mph13.4 mph (10:00 am)
Weather ElementAverage
Visibility6.1 mi
Wind DirectionESE (109 °)

Weather ElementTotal
Precipitation---
Cooling Degree Days1.2 (Base 65)
Growing Degree Days16.2 (Base 50)
Averaged from 31 records on April 30, 2013
WEATHER CONDITIONS BREAKOUT
WIND DIRECTION BREAKOUT
WEATHER BY HOUR - APRIL 30, 2013
[ °C ]   °F
Local TimeTemperatureDewpointHumidityBarometerVisibilityWind DirectionWind SpeedGust SpeedPrecipitationEventsConditions
1:00 AM55.4 °F33.8 °F44 %30.12 in6.2 miSE (130°)4.5 mphClear
2:00 AM53.0 °F37.0 °F44 %30.14 in6.0 miESE (120°)6.7 mph
2:00 AM53.6 °F35.6 °F51 %30.09 in6.2 miESE (120°)6.7 mphClear
3:00 AM55.4 °F37.4 °F51 %30.09 in6.2 miSE (140°)6.7 mphClear
4:00 AM51.8 °F37.4 °F58 %30.09 in6.2 miSE (140°)4.5 mphClear
5:00 AM53.0 °F40.0 °F51 %30.13 in6.0 miEast (100°)6.7 mph
5:00 AM51.8 °F39.2 °F62 %30.09 in6.2 miEast (100°)6.7 mphClear
6:00 AM50.0 °F39.2 °F66 %30.12 in6.2 miSSW (200°)4.5 mphClear
7:00 AM51.8 °F41.0 °F67 %30.12 in6.2 miSW (220°)2.2 mphClear
8:00 AM57.0 °F43.0 °F49 %30.17 in6.0 miCalm
8:00 AM60.8 °F41.0 °F48 %30.15 in6.2 miCalmClear
9:00 AM66.2 °F35.6 °F32 %30.15 in6.2 miEast (100°)8.9 mphClear
10:00 AM71.6 °F33.8 °F25 %30.18 in6.2 miESE (110°)13.4 mphClear
11:00 AM73.0 °F34.0 °F14 %30.18 in6.0 miESE (110°)13.4 mph
11:00 AM73.4 °F32.0 °F22 %30.18 in6.2 miESE (110°)11.2 mphClear
12:00 PM75.2 °F30.2 °F19 %30.18 in6.2 miEast (80°)11.2 mphClear
1:00 PM77.0 °F32.0 °F19 %30.18 in6.2 miEast (90°)11.2 mphPartly Cloudy
2:00 PM80.0 °F34.0 °F10 %30.16 in6.0 miENE (70°)11.2 mphScattered Clouds
2:00 PM78.8 °F28.4 °F16 %30.18 in6.2 miEast (80°)8.9 mphPartly Cloudy
3:00 PM82.4 °F26.6 °F13 %30.15 in6.2 miEast (80°)8.9 mphPartly Cloudy
4:00 PM82.4 °F24.8 °F12 %30.15 in6.2 miEast (80°)8.9 mphPartly Cloudy
5:00 PM82.0 °F31.0 °F8 %30.13 in6.0 miEast (90°)8.9 mphScattered Clouds
5:00 PM82.4 °F23.0 °F11 %30.15 in6.2 miEast (100°)8.9 mphPartly Cloudy
6:00 PM82.4 °F26.6 °F13 %30.15 in6.2 miEast (90°)8.9 mphPartly Cloudy
7:00 PM80.6 °F24.8 °F13 %30.15 in6.2 miESE (110°)8.9 mphClear
8:00 PM75.0 °F36.0 °F15 %30.16 in6.0 miESE (110°)6.7 mph
8:00 PM75.2 °F30.2 °F19 %30.18 in6.2 miESE (110°)6.7 mphClear
9:00 PM69.8 °F32.0 °F25 %30.18 in6.2 miSE (140°)4.5 mphClear
10:00 PM68.0 °F33.8 °F28 %30.21 in6.2 miSE (130°)8.9 mphClear
11:00 PM66.0 °F40.0 °F27 %30.20 in6.0 miEast (100°)6.7 mph
11:00 PM66.2 °F33.8 °F30 %30.21 in6.2 miESE (110°)6.7 mphClear
Hourly data recorded from UTAA, located miles away from Kurtile, Turkmenistan







STORIES FROM OUR PARTNERS